Wind_Speed
8 7 8 7 7 7 7 7 7 7 7 8 9 9 8 8 9 9 9 8 9 9 9 9 8 8 9 10 10 10 10 10 10 11 11 11 12 12 12 12 11 11 11
8 8 8 7 7 8 8 8 8 8 9 9 9 9 9 9 9 10 10 10 10 9 9 10 10 10 10 10 10 10 10 11 11 12 12 12 12 12 13 12 12 12 11
8 9 9 9 8 8 8 8 9 9 9 9 9 10 10 10 11 11 11 11 11 10 10 10 10 11 11 11 11 11 10 10 10 10 11 11 12 12 13 13 12 13 12
9 9 10 10 9 9 10 10 9 9 9 9 10 10 11 11 11 12 12 12 12 11 12 12 12 12 12 12 11 12 12 11 11 11 12 12 11 12 12 12 12 12 12
10 9 10 9 9 10 10 10 10 10 10 10 10 11 11 12 12 12 13 13 13 13 13 13 13 13 13 13 13 13 13 13 13 12 12 12 12 12 12 12 11 11 12
10 10 10 10 10 10 11 11 11 11 11 11 11 11 12 12 12 12 13 14 14 14 15 15 14 14 15 14 14 14 14 14 14 13 13 14 13 13 12 12 12 12 12
10 10 10 10 11 11 11 11 12 13 13 13 13 13 13 13 13 13 14 15 16 16 15 16 16 15 15 15 15 15 16 15 15 14 15 15 15 14 14 13 13 13 13
11 11 11 11 11 11 12 12 13 13 14 14 14 14 14 14 14 14 14 15 16 16 16 16 16 16 15 16 16 16 15 16 15 15 15 15 15 15 14 13 13 14 14
12 12 12 12 12 12 12 12 13 13 13 14 14 14 14 15 15 15 16 15 16 17 17 17 17 17 17 17 17 17 17 17 17 17 16 15 15 15 15 15 15 15 15
12 13 13 13 13 13 13 13 14 14 14 14 15 16 16 16 16 16 17 16 16 17 18 18 18 18 18 18 18 17 17 17 18 18 19 18 17 17 17 17 17 16 16
13 14 13 13 13 13 13 14 14 14 14 15 15 16 16 16 17 18 18 18 18 18 18 19 19 18 18 18 18 18 18 19 18 18 19 18 18 18 18 18 18 18 18
14 14 13 13 13 13 14 14 14 15 15 14 15 15 16 16 17 18 18 18 19 18 18 19 19 19 19 18 19 19 19 19 19 18 19 19 19 19 19 19 20 20 19
15 14 14 14 14 14 14 15 15 16 16 16 16 16 16 17 18 18 19 19 20 20 20 19 19 19 20 20 20 19 20 20 20 21 21 21 21 22 21 21 21 21 20
15 14 15 15 15 15 16 16 16 16 16 17 16 16 16 16 18 19 20 20 20 20 20 20 20 20 20 21 21 21 21 21 22 22 22 22 23 23 24 23 23 22 22
16 16 16 16 17 17 17 18 18 18 18 17 17 16 16 17 18 19 20 19 19 19 20 21 21 21 21 22 22 21 22 22 22 22 22 23 24 25 24 24 25 24 24
17 17 17 18 18 17 18 19 20 19 19 18 17 17 17 17 17 18 18 19 19 19 19 20 21 22 22 23 22 22 22 22 21 21 22 23 23 24 24 25 25 26 26
18 18 18 19 19 19 19 19 19 20 19 19 18 18 18 18 17 18 18 19 19 20 21 21 22 22 23 23 23 23 23 23 23 23 23 23 23 24 24 25 26 27 27
19 19 19 20 20 20 20 20 21 20 20 20 19 19 19 19 19 20 19 20 21 22 22 23 23 23 24 24 23 23 24 24 24 24 24 24 24 24 25 25 27 27 28
20 20 20 20 21 21 21 22 21 20 20 20 20 20 20 20 20 20 20 21 21 22 23 23 24 24 24 24 23 24 25 25 26 25 25 25 25 25 25 25 26 27 28
20 21 20 20 21 21 20 21 21 20 20 19 19 20 20 20 21 21 21 21 22 22 23 23 24 25 25 25 24 24 25 26 26 26 26 26 26 26 27 26 27 28 29
21 20 20 20 20 20 20 21 21 20 19 19 19 20 21 21 22 22 22 23 23 23 23 24 24 24 25 25 25 26 26 27 27 27 27 27 27 27 27 27 28 28 29
20 21 21 21 21 21 21 21 21 20 19 19 19 20 21 22 22 22 23 23 23 24 24 24 24 24 24 25 26 26 26 26 27 27 28 27 27 28 28 27 27 28 28
21 21 22 22 21 21 22 23 22 21 21 21 21 21 22 22 22 22 22 23 23 23 24 24 24 24 24 25 25 25 26 26 27 27 27 27 27 28 27 27 27 27 27
23 22 23 23 23 23 24 24 23 22 22 22 22 22 22 23 23 22 22 22 22 22 23 23 24 24 24 24 24 25 25 25 26 26 27 27 27 28 28 28 28 27 27
24 24 24 24 25 25 25 25 24 23 23 24 24 24 24 24 24 23 22 22 22 22 23 23 24 24 24 25 24 24 24 25 26 26 27 27 28 28 27 26 27 27 28
24 25 25 25 25 26 26 25 25 25 25 25 25 25 25 25 24 24 23 24 24 25 25 25 25 25 25 25 24 25 25 25 25 25 26 26 26 26 26 26 27 27 27
Wind_Direction
305 301 297 290 281 280 275 271 268 260 255 257 258 256 254 252 247 250 253 257 260 259 259 259 259 264 267 266 266 260 261 261 262 260 263 269 266 264 263 265 266 268 264
307 306 305 295 282 278 278 278 274 268 260 259 261 257 255 256 254 252 253 257 258 260 263 263 263 267 271 272 268 267 265 264 267 268 267 271 269 266 265 267 268 266 264
306 308 305 297 290 285 284 282 280 278 271 265 263 262 257 258 260 257 255 257 260 261 263 265 265 266 272 275 273 267 267 268 270 277 274 272 270 267 266 267 267 263 263
309 306 304 298 292 289 286 285 284 281 278 272 269 265 262 261 260 260 257 260 261 262 263 264 266 268 270 273 274 268 267 268 271 275 275 274 271 272 269 267 267 261 261
310 308 309 306 297 289 289 289 285 284 280 274 270 267 264 264 266 264 263 264 264 265 265 265 267 269 270 272 273 270 267 266 269 274 273 273 271 271 267 265 267 260 265
313 309 307 309 307 299 293 289 287 285 282 276 272 270 267 267 266 264 264 263 264 267 268 267 266 267 270 272 272 271 269 267 267 269 271 268 269 269 265 264 263 262 265
314 312 309 307 305 303 298 292 285 284 283 279 275 271 270 270 268 266 267 266 266 267 267 265 265 267 269 270 271 272 270 270 269 268 268 265 263 265 265 262 259 261 263
316 311 309 308 304 299 297 297 295 289 287 283 278 275 274 274 271 269 269 269 268 267 266 265 264 265 266 267 271 273 271 270 268 266 267 264 263 264 263 260 260 261 260
316 312 308 305 302 298 296 296 295 289 288 286 281 277 274 272 271 270 269 272 274 270 266 267 267 268 268 269 269 271 272 271 268 265 266 265 262 262 262 260 261 261 260
319 314 310 307 304 302 298 294 293 290 288 287 282 279 278 274 272 271 273 275 275 271 269 269 269 269 269 268 269 271 272 272 268 266 265 267 264 262 263 262 259 260 262
320 317 313 311 305 301 300 297 296 296 292 288 283 279 278 276 274 272 273 273 273 273 269 268 269 269 268 269 271 271 271 270 268 267 265 264 264 263 263 262 261 260 260
320 317 317 314 311 305 300 299 301 301 299 294 288 282 279 274 272 273 271 272 274 274 272 270 269 269 268 268 271 273 272 271 267 267 265 263 264 262 262 262 263 261 259
321 319 319 316 312 307 303 300 302 301 300 297 292 287 282 275 272 273 272 272 273 274 275 274 270 269 269 270 272 273 272 271 268 267 267 266 265 263 262 262 263 261 260
321 317 317 314 313 310 307 304 303 304 303 302 299 293 286 280 276 275 275 275 274 274 275 277 272 269 270 271 272 272 273 272 270 268 267 267 266 264 262 262 263 262 261
319 316 314 313 310 308 307 306 303 302 301 302 302 297 289 284 281 279 276 275 277 276 275 277 277 273 273 273 271 271 272 272 271 270 269 267 266 265 262 262 262 261 261
317 315 313 312 310 307 306 306 302 301 299 298 298 297 296 291 285 281 278 277 277 277 276 278 278 277 275 276 275 277 273 272 271 271 271 270 269 267 263 262 262 261 260
314 314 311 311 311 308 305 306 305 304 300 297 296 293 293 293 292 287 281 278 277 277 278 279 279 280 277 276 275 275 273 273 272 272 271 270 270 268 268 265 264 263 261
312 311 311 311 312 311 307 306 306 304 300 298 296 294 291 291 291 290 285 282 279 277 278 278 280 280 280 277 275 273 272 272 273 272 270 270 269 269 268 266 265 264 262
313 313 313 313 313 313 312 308 308 303 301 299 297 294 291 291 292 291 288 285 283 280 278 279 280 281 280 278 274 274 273 271 272 272 271 271 271 269 269 268 267 265 265
312 313 314 315 315 315 314 314 313 309 303 301 299 295 293 293 291 290 289 287 284 281 280 280 281 282 282 279 276 276 275 274 273 273 271 271 272 272 268 267 267 266 265
311 312 312 314 314 314 313 314 313 311 305 302 300 297 295 294 293 292 291 287 284 282 281 282 283 285 283 281 279 278 277 276 275 274 272 270 270 271 269 267 266 266 266
311 311 311 311 312 311 311 312 311 312 310 305 302 301 298 295 295 293 291 290 286 283 283 283 284 284 283 283 282 280 280 278 275 273 272 271 270 269 269 269 269 270 268
308 308 308 309 309 309 310 311 311 310 308 306 303 301 299 298 295 293 291 290 287 284 283 284 285 284 283 283 282 280 278 277 275 273 272 272 272 272 270 270 270 269 268
306 305 306 308 308 309 309 309 310 307 306 304 304 302 300 298 296 293 289 289 288 286 286 287 287 287 286 286 285 283 280 277 276 274 274 273 274 274 272 271 270 269 268
305 305 305 307 308 308 308 307 306 305 304 303 303 302 301 297 296 295 291 289 289 288 288 288 289 289 287 286 286 284 282 280 278 276 276 275 275 275 272 271 270 270 269
307 307 307 307 307 307 307 306 305 303 302 302 302 302 301 300 297 295 292 290 289 289 288 287 286 286 287 287 286 285 285 284 281 278 277 276 276 275 273 272 271 270 270
Height
5874 5874 5873 5873 5873 5872 5872 5872 5872 5872 5873 5873 5874 5874 5875 5876 5877 5878 5878 5879 5880 5881 5881 5882 5883 5884 5884 5884 5885 5885 5886 5886 5886 5887 5887 5888 5888 5889 5889 5890 5891 5891 5892
5873 5873 5872 5872 5871 5871 5871 5871 5871 5871 5871 5871 5872 5872 5873 5874 5875 5876 5876 5877 5878 5879 5880 5880 5881 5882 5882 5882 5883 5883 5883 5884 5884 5885 5885 5886 5886 5886 5887 5888 5888 5888 5889
5872 5872 5871 5870 5870 5870 5869 5869 5869 5869 5869 5869 5869 5870 5871 5871 5872 5873 5874 5875 5876 5877 5877 5878 5879 5879 5880 5880 5880 5881 5881 5882 5882 5882 5883 5883 5883 5884 5884 5884 5885 5886 5886
5871 5870 5869 5869 5868 5868 5867 5867 5867 5866 5866 5867 5867 5868 5868 5869 5870 5871 5871 5872 5873 5874 5875 5875 5876 5877 5877 5878 5878 5878 5879 5879 5879 5879 5880 5880 5880 5881 5881 5881 5882 5882 5883
5869 5868 5868 5867 5866 5866 5865 5865 5865 5865 5864 5864 5865 5865 5866 5867 5867 5868 5868 5869 5870 5871 5872 5872 5873 5874 5874 5875 5875 5875 5876 5876 5876 5876 5876 5877 5877 5877 5878 5878 5879 5879 5880
5867 5866 5866 5865 5865 5864 5863 5863 5863 5862 5862 5862 5862 5863 5863 5864 5864 5865 5865 5866 5867 5868 5868 5869 5870 5870 5871 5871 5872 5872 5872 5873 5873 5873 5873 5873 5874 5874 5874 5875 5876 5876 5877
5865 5865 5864 5863 5863 5862 5861 5861 5860 5860 5859 5859 5859 5860 5860 5861 5861 5861 5862 5862 5863 5864 5864 5865 5866 5866 5867 5868 5868 5868 5868 5869 5869 5869 5870 5870 5870 5871 5871 5872 5872 5873 5874
5864 5863 5862 5861 5860 5860 5859 5858 5857 5857 5856 5856 5856 5856 5857 5858 5857 5858 5858 5858 5859 5859 5860 5860 5861 5862 5863 5864 5864 5864 5864 5864 5865 5865 5865 5866 5866 5867 5867 5868 5869 5869 5870
5862 5861 5860 5859 5858 5857 5856 5855 5854 5854 5853 5853 5852 5853 5853 5853 5853 5854 5854 5854 5854 5855 5856 5856 5857 5858 5858 5859 5859 5860 5860 5860 5860 5860 5861 5862 5862 5863 5863 5864 5865 5865 5866
5861 5859 5858 5857 5856 5855 5854 5853 5852 5851 5850 5849 5848 5848 5849 5849 5849 5850 5850 5850 5851 5851 5851 5852 5852 5853 5853 5854 5855 5855 5855 5855 5855 5856 5856 5857 5858 5858 5859 5859 5860 5861 5861
5859 5857 5855 5854 5853 5852 5851 5850 5849 5848 5846 5845 5844 5844 5844 5844 5845 5845 5846 5846 5846 5846 5846 5847 5848 5848 5849 5849 5850 5850 5850 5850 5850 5850 5851 5852 5852 5853 5854 5855 5855 5856 5857
5856 5855 5853 5852 5850 5849 5848 5847 5846 5844 5843 5842 5841 5840 5840 5840 5840 5840 5841 5841 5841 5841 5841 5842 5842 5843 5844 5844 5845 5845 5845 5844 5845 5845 5846 5847 5847 5848 5848 5849 5850 5850 5851
5854 5852 5851 5849 5848 5846 5845 5844 5842 5841 5839 5838 5837 5836 5835 5835 5836 5836 5836 5836 5836 5836 5836 5837 5837 5837 5838 5839 5839 5839 5839 5839 5839 5840 5840 5841 5841 5842 5843 5843 5844 5845 5845
5851 5850 5848 5847 5845 5844 5842 5840 5839 5837 5836 5834 5833 5832 5831 5831 5831 5831 5831 5831 5831 5831 5831 5831 5831 5831 5833 5833 5833 5833 5833 5833 5833 5834 5834 5835 5835 5835 5837 5837 5838 5838 5839
5849 5847 5845 5844 5842 5840 5839 5837 5835 5833 5832 5830 5829 5828 5827 5827 5826 5826 5825 5826 5826 5826 5826 5825 5825 5825 5826 5826 5826 5827 5827 5827 5827 5827 5828 5828 5828 5829 5830 5830 5831 5832 5832
5846 5844 5842 5840 5838 5837 5835 5833 5831 5829 5828 5826 5825 5824 5823 5822 5821 5820 5820 5820 5820 5821 5821 5820 5820 5820 5820 5819 5819 5820 5820 5821 5821 5821 5821 5821 5822 5822 5822 5823 5824 5824 5825
5842 5840 5838 5836 5834 5832 5830 5829 5827 5825 5823 5822 5820 5819 5818 5817 5816 5815 5815 5815 5814 5814 5815 5815 5814 5814 5813 5813 5813 5813 5813 5814 5814 5814 5814 5814 5814 5815 5815 5815 5816 5817 5818
5838 5836 5834 5832 5830 5828 5826 5824 5822 5820 5818 5816 5815 5814 5813 5812 5811 5810 5809 5809 5808 5808 5808 5808 5808 5808 5807 5807 5807 5807 5807 5807 5807 5807 5807 5807 5807 5807 5807 5808 5808 5809 5809
5835 5832 5830 5828 5826 5823 5821 5819 5817 5814 5812 5811 5809 5809 5808 5807 5806 5805 5804 5803 5802 5802 5802 5802 5801 5801 5801 5800 5800 5800 5800 5799 5799 5800 5800 5800 5800 5800 5800 5800 5800 5801 5801
5831 5828 5826 5824 5821 5819 5817 5814 5812 5809 5807 5806 5805 5803 5802 5801 5800 5799 5798 5797 5796 5796 5795 5795 5795 5794 5793 5793 5792 5792 5792 5792 5792 5792 5792 5792 5792 5792 5792 5792 5792 5792 5792
5826 5824 5822 5819 5817 5815 5812 5810 5807 5805 5803 5801 5800 5798 5797 5796 5795 5793 5792 5791 5790 5789 5788 5788 5788 5787 5786 5785 5785 5785 5785 5784 5784 5784 5784 5784 5784 5783 5783 5783 5783 5783 5783
5822 5819 5817 5815 5813 5810 5808 5805 5803 5801 5798 5797 5795 5793 5792 5790 5789 5787 5786 5784 5783 5782 5782 5781 5780 5780 5779 5778 5777 5776 5776 5776 5776 5776 5775 5775 5775 5775 5774 5774 5774 5774 5774
5817 5815 5813 5810 5808 5806 5803 5801 5798 5796 5794 5792 5790 5788 5786 5784 5783 5781 5780 5778 5777 5775 5775 5774 5773 5772 5771 5770 5769 5768 5768 5767 5767 5767 5767 5767 5766 5766 5765 5765 5765 5765 5765
5812 5810 5808 5805 5803 5801 5798 5795 5793 5791 5788 5786 5784 5782 5780 5778 5776 5774 5773 5772 5770 5769 5768 5767 5766 5765 5763 5762 5761 5760 5759 5759 5759 5758 5757 5758 5758 5757 5757 5756 5756 5756 5756
5807 5805 5803 5800 5798 5796 5793 5790 5788 5785 5783 5781 5779 5776 5774 5772 5770 5768 5766 5765 5764 5762 5761 5760 5758 5757 5756 5755 5753 5752 5751 5751 5750 5750 5749 5748 5748 5748 5747 5747 5747 5747 5747
5801 5799 5797 5794 5792 5790 5787 5784 5781 5779 5777 5774 5772 5770 5768 5765 5763 5761 5759 5758 5757 5755 5754 5753 5751 5750 5748 5747 5745 5744 5743 5742 5741 5741 5740 5739 5739 5738 5738 5738 5738 5738 5738